Wind_Speed
11 11 11 10 12 13 13 13 13 13 15 15 15 14 15 15 15 15 14 13 12 11 9 7 6 6 6 7 8 7 8 9 10 11 11 12 12 13 13 14 14 10 13
14 11 12 11 12 12 11 11 13 13 14 14 13 14 16 14 13 13 13 13 12 10 8 6 5 5 6 6 7 7 6 8 8 9 10 10 10 10 10 11 8 12 12
13 12 11 12 12 13 13 11 12 12 13 13 13 14 14 13 12 11 12 12 10 9 8 7 6 5 5 5 5 6 5 6 7 8 9 7 8 10 9 9 8 10 11
13 12 11 14 13 13 12 13 13 13 13 13 12 12 13 11 10 11 11 11 10 8 8 7 5 5 5 4 4 4 4 5 5 6 3 5 6 7 7 8 9 11 11
13 12 13 14 14 14 14 13 12 12 12 12 12 11 10 10 10 11 11 10 10 9 9 7 6 5 4 4 3 3 3 3 3 3 2 3 3 5 4 7 8 10 10
12 11 14 14 14 14 13 12 12 11 11 10 10 11 10 10 10 10 10 10 10 9 8 7 6 5 5 4 4 3 2 1 1 2 1 2 2 5 6 6 10 10 11
13 11 11 12 12 12 11 11 11 11 11 10 10 10 10 10 10 9 9 9 9 9 8 8 7 6 5 6 6 6 5 4 4 4 4 5 5 8 7 7 9 11 12
11 11 10 10 11 11 11 11 10 10 10 10 10 10 10 9 9 9 9 10 10 10 10 9 7 7 6 7 7 8 8 8 7 8 7 7 10 10 9 10 10 13 14
11 10 10 9 10 9 10 10 10 9 10 9 9 9 9 9 8 8 8 9 10 10 10 10 11 10 9 9 9 9 10 11 10 11 11 10 13 11 10 11 11 14 15
10 10 9 9 9 8 7 9 9 9 8 8 8 7 7 5 6 6 7 9 8 9 10 10 11 11 12 12 12 12 13 14 14 14 14 13 16 14 13 13 11 14 16
9 8 8 8 8 8 7 7 6 6 7 7 5 5 5 5 5 6 8 8 8 8 9 9 10 10 12 12 14 14 15 13 14 15 16 15 19 16 15 16 17 17 18
11 9 7 7 7 7 6 6 5 5 4 4 4 4 5 7 8 7 7 5 4 4 3 3 3 4 6 8 9 11 12 13 14 15 16 18 20 19 19 19 19 20 21
11 8 8 7 6 6 5 5 3 3 2 4 5 4 5 7 9 7 7 6 4 4 2 2 1 1 3 4 5 6 7 8 10 11 14 17 18 19 20 22 24 22 22
12 9 7 6 6 6 6 5 5 5 4 4 5 5 4 5 6 6 5 5 4 4 2 4 2 1 2 3 4 5 5 7 10 11 12 14 18 18 20 21 22 24 23
13 10 8 7 8 8 8 7 7 7 6 6 6 6 4 4 4 4 4 3 3 3 3 3 3 3 4 5 6 7 8 8 9 11 13 16 19 18 18 19 21 21 22
13 12 10 9 8 9 9 9 8 8 8 8 8 7 6 5 4 4 3 3 3 3 3 3 4 4 5 7 8 9 10 11 11 12 13 15 18 20 20 18 17 19 19
14 13 12 10 10 10 11 10 9 9 9 9 8 9 8 7 6 5 4 4 4 4 4 3 4 5 5 7 8 9 10 10 11 11 12 13 15 17 18 16 15 16 18
15 14 12 11 11 11 11 9 10 10 9 9 7 7 8 8 7 6 5 5 5 5 5 4 5 6 6 7 9 10 10 10 10 11 11 11 12 12 13 12 12 14 16
16 16 15 14 13 14 12 11 11 12 9 9 7 6 7 7 7 6 5 5 5 4 5 5 5 6 6 8 10 10 8 8 7 7 7 6 5 6 7 11 9 10 13
17 16 16 16 15 15 14 13 11 11 9 8 7 6 6 7 7 6 6 6 6 6 6 7 6 7 5 10 12 10 8 5 3 4 5 6 7 8 10 12 10 8 8
19 19 19 18 17 16 14 14 12 11 9 8 8 7 7 6 7 6 6 6 6 7 7 8 7 8 8 13 9 7 4 1 3 3 4 5 7 9 12 12 10 9 10
22 21 20 20 19 16 14 11 11 12 10 9 8 8 7 7 7 7 7 7 8 7 9 10 11 8 6 10 8 8 2 6 2 1 2 5 8 8 10 12 12 10 10
25 24 22 21 20 17 14 13 14 14 12 10 8 7 7 8 8 9 9 9 9 9 9 10 10 10 7 7 8 6 3 3 12 4 1 4 8 10 11 10 11 10 10
28 23 21 20 20 18 17 15 16 12 13 9 9 8 8 8 9 9 10 10 10 10 10 9 9 8 7 7 2 7 4 3 3 5 6 13 12 16 13 12 11 7 9
26 24 22 20 20 19 19 16 16 13 14 13 11 10 9 9 9 9 9 9 9 9 9 8 7 7 7 6 7 7 4 4 3 4 7 9 17 15 12 13 5 6 9
25 24 23 22 20 19 19 17 16 17 17 17 14 11 9 8 7 7 8 9 8 8 7 7 6 8 8 8 7 8 8 5 7 5 5 12 12 13 14 9 11 10 11
Wind_Direction
144 144 149 156 149 140 137 129 123 131 152 154 155 154 155 152 149 153 155 154 153 151 150 133 117 102 98 94 86 79 83 92 94 101 107 113 118 122 125 120 109 122 127
141 135 145 149 150 142 135 133 125 127 142 152 155 155 158 158 155 157 159 160 158 159 157 146 129 119 117 105 91 84 85 96 105 111 109 110 119 122 130 129 121 137 139
134 130 134 150 152 154 151 140 131 131 135 148 153 154 159 163 164 164 162 164 165 168 166 155 145 135 133 120 107 99 94 105 118 119 116 121 125 130 132 143 145 147 150
130 134 140 155 156 156 155 149 147 141 137 141 150 157 162 168 169 170 166 169 172 173 169 161 159 161 161 151 131 116 107 114 120 117 105 118 130 141 148 156 166 167 166
126 126 139 156 159 158 158 158 153 147 143 145 149 158 167 169 171 171 173 176 179 177 173 174 179 184 187 185 169 145 132 132 131 96 128 151 147 186 154 179 181 183 175
117 115 137 149 155 158 159 159 158 154 154 152 153 156 164 169 174 178 185 186 186 187 188 191 194 195 194 202 198 195 192 199 179 229 209 231 215 230 201 198 188 197 191
125 117 132 146 152 154 152 155 162 166 166 167 170 171 173 179 185 188 195 197 199 202 206 209 211 214 213 214 222 227 226 225 239 244 243 240 243 238 218 229 220 218 212
134 129 121 145 150 149 152 159 160 164 168 174 179 181 185 189 197 199 203 208 213 214 214 214 226 229 230 234 241 244 243 242 251 253 248 245 240 242 232 224 233 229 225
128 129 125 124 143 158 165 166 167 171 172 172 177 184 191 191 195 206 216 220 221 225 225 229 227 233 237 240 245 254 260 259 252 257 254 251 248 251 245 239 234 229 234
126 125 128 129 133 129 135 162 172 179 179 179 188 188 181 189 195 192 206 220 224 237 233 233 238 238 241 240 245 248 251 259 262 258 257 256 254 255 251 243 229 223 226
125 120 126 129 130 132 130 140 121 133 129 115 103 130 130 155 147 174 200 213 216 228 234 237 241 245 250 249 249 249 250 252 255 261 260 256 259 263 260 256 248 241 237
148 139 136 133 135 133 132 126 118 108 96 95 106 153 142 157 165 180 164 159 179 179 193 199 229 252 274 264 257 256 250 253 257 258 263 267 264 266 263 260 256 251 244
157 148 140 134 130 126 128 126 125 120 104 71 88 116 148 154 162 166 164 151 126 119 83 69 8 286 308 295 273 264 265 269 270 271 270 271 277 272 269 264 260 255 252
163 152 135 127 118 117 115 111 102 103 93 80 62 76 106 131 145 147 145 140 145 131 158 175 155 312 300 304 296 288 282 280 285 289 290 282 283 281 277 275 267 258 255
168 157 146 138 130 117 109 110 107 97 93 85 64 52 73 87 95 96 90 77 53 28 25 16 337 321 306 304 298 298 293 290 291 290 287 293 296 292 285 281 278 273 259
169 163 154 143 125 121 116 110 104 97 87 81 72 58 60 73 84 94 83 63 42 33 9 358 328 315 304 301 295 293 291 288 286 286 286 287 288 295 294 285 282 279 278
176 167 155 140 132 128 120 118 113 106 100 89 78 67 61 70 65 79 81 64 40 19 17 355 335 320 306 302 297 298 294 290 288 287 288 288 289 291 298 300 287 273 268
175 170 158 151 147 133 127 123 118 108 100 93 81 70 64 62 66 68 67 60 42 29 22 7 358 345 328 323 316 312 306 306 304 303 303 302 301 298 305 304 295 286 274
180 172 167 159 153 139 133 127 120 109 102 95 84 69 56 54 57 65 58 41 36 23 17 9 356 350 329 323 312 304 301 307 314 322 330 337 356 356 325 318 313 301 281
183 177 171 167 161 149 144 138 129 115 107 99 89 78 68 58 54 63 53 45 42 34 24 16 6 358 344 331 316 306 305 307 335 9 29 37 38 30 24 11 6 4 337
185 181 178 172 170 161 161 157 148 138 127 110 96 85 72 65 60 70 67 54 50 43 31 19 7 1 358 348 330 323 286 161 77 66 64 63 50 34 28 23 16 2 353
188 187 183 180 175 177 173 170 156 142 131 123 111 95 87 80 76 70 71 59 51 46 36 28 25 8 11 9 350 285 286 191 71 27 90 48 32 22 15 13 13 11 2
192 190 188 183 180 183 176 162 147 137 133 132 128 110 92 86 80 75 70 68 59 53 42 33 26 22 2 15 22 353 309 334 338 197 357 350 351 347 349 353 0 3 6
192 189 188 184 185 187 182 176 172 165 156 145 137 129 106 93 85 78 74 69 66 61 53 42 32 27 20 26 32 23 7 330 323 300 319 322 321 319 319 318 322 3 3
189 185 185 185 188 190 188 186 177 163 148 144 138 129 117 97 85 79 78 76 77 75 69 64 54 47 46 42 34 15 16 341 65 299 298 327 326 322 325 319 0 358 357
191 186 183 182 185 189 188 183 180 166 157 150 147 139 129 117 98 88 89 84 81 78 73 61 55 50 48 47 48 42 36 28 354 346 317 323 318 315 329 49 44 19 352
Height
810 813 814 816 817 818 818 818 819 819 819 820 820 822 823 825 826 827 828 829 830 832 833 834 835 834 834 834 834 834 833 832 832 831 831 830 831 831 832 833 833 836 835
810 813 813 816 817 819 820 821 819 821 821 822 822 823 824 826 827 828 829 830 830 832 834 835 834 835 835 835 835 835 834 834 834 833 833 832 833 834 834 834 834 835 836
811 813 815 816 818 818 819 821 821 822 822 823 824 824 825 827 828 829 830 831 832 833 834 834 835 835 836 836 835 835 835 835 835 835 834 833 835 834 835 836 837 838 838
811 814 815 815 817 818 820 820 821 822 823 824 825 826 826 828 829 831 831 832 833 833 835 835 835 835 836 836 836 836 835 836 836 837 836 835 836 836 836 836 837 838 838
811 813 814 815 816 817 818 820 821 822 823 824 825 827 829 829 831 832 833 833 833 834 834 835 836 835 836 836 837 837 836 836 837 837 838 838 837 837 837 837 838 838 839
813 814 813 815 816 817 817 818 820 821 823 824 825 826 829 829 831 831 833 833 834 834 834 835 835 836 836 836 836 836 837 837 837 837 838 838 838 836 837 838 839 839 840
811 814 814 815 816 817 818 819 819 820 822 823 825 826 827 829 830 831 832 833 834 834 834 835 834 835 835 835 836 836 836 836 837 836 836 836 837 836 836 838 838 839 839
810 813 814 815 816 817 818 819 820 820 821 822 823 825 826 828 829 830 830 831 832 833 833 833 834 834 834 834 835 835 835 835 836 835 834 834 834 834 834 836 836 837 838
810 813 814 815 816 817 818 819 819 821 821 821 822 823 824 825 827 828 829 830 831 832 831 832 832 832 833 833 833 834 835 835 835 834 833 831 831 831 832 833 833 835 837
809 810 812 814 816 818 818 818 818 819 820 820 821 822 823 824 826 826 827 828 829 831 830 830 830 830 831 830 831 831 832 833 833 832 831 830 829 830 830 830 831 831 832
810 812 813 814 815 817 819 818 819 820 819 820 820 821 822 823 825 824 825 826 827 828 828 828 828 828 829 828 828 828 829 830 830 829 827 826 827 828 828 828 828 829 830
811 811 813 813 815 817 818 820 820 821 821 821 820 819 820 820 822 823 823 824 825 826 827 827 827 827 827 827 827 826 826 826 827 826 824 823 824 825 824 825 825 825 826
811 813 813 813 814 816 817 818 820 821 822 821 820 819 818 819 820 821 822 823 824 824 827 827 827 826 826 826 826 824 824 824 823 822 822 822 822 822 821 820 821 822 823
810 812 813 814 814 816 817 818 819 820 821 822 821 821 820 818 819 820 820 820 821 821 822 822 824 824 824 824 824 824 823 822 821 819 818 819 818 818 818 817 818 818 819
808 810 812 813 814 814 816 817 818 819 819 820 821 821 822 821 820 820 820 821 821 821 822 823 822 822 823 822 822 822 821 821 820 820 818 817 816 815 814 814 814 815 815
807 809 811 812 813 813 815 817 819 819 820 820 821 821 821 822 822 821 821 822 822 822 822 822 822 822 821 821 821 820 819 817 817 816 815 814 813 812 811 810 811 811 811
805 808 810 811 813 814 815 817 819 819 820 821 822 821 822 822 821 821 821 821 822 821 821 822 821 820 819 819 818 817 816 814 813 812 811 811 810 809 808 806 806 806 806
804 806 808 810 813 814 816 818 819 819 821 822 824 823 822 822 822 822 822 821 821 821 822 822 820 819 819 818 817 815 814 812 811 810 809 809 809 808 806 803 803 803 802
802 804 806 809 811 812 815 818 820 819 822 822 824 825 824 823 822 823 822 822 822 823 822 821 820 819 818 817 815 813 812 810 809 808 807 807 807 807 805 804 803 802 799
800 803 805 808 810 811 814 817 819 819 822 823 824 825 825 823 823 823 823 822 823 823 822 821 820 818 817 816 812 810 809 808 807 807 807 807 807 807 806 806 805 802 798
797 799 802 806 810 811 813 815 815 817 821 823 824 825 825 825 824 824 824 823 823 823 822 821 819 819 817 815 811 808 805 807 807 806 806 806 806 807 806 804 804 804 801
792 795 798 801 805 810 812 813 814 817 819 822 825 825 825 825 825 824 824 823 822 823 822 821 820 819 819 818 816 811 801 802 804 805 805 806 806 806 806 806 804 802 802
786 790 794 797 801 806 808 812 813 814 818 821 824 825 826 825 824 824 824 823 823 823 823 823 822 822 820 820 820 817 807 802 808 803 806 807 808 807 806 806 805 802 801
778 785 790 794 798 803 806 807 809 809 812 818 822 824 824 824 824 824 823 823 823 823 824 825 825 824 823 821 820 820 821 821 814 807 805 806 808 807 804 804 804 803 801
776 781 786 791 796 800 801 803 805 807 811 815 820 823 824 824 824 824 824 824 824 825 825 825 825 825 824 822 821 820 820 818 822 821 813 808 810 806 805 803 802 803 803
775 777 781 786 791 797 800 801 803 805 808 812 816 820 822 824 825 826 826 826 825 826 827 827 828 827 826 825 823 822 822 822 823 824 821 816 813 809 806 804 802 803 806